Starlink 4525

operational
NORAD ID: 53401 Int'l Des: 2022-097 Owner: SPXS Country: US Constellation: starlink
LEOCIRCULAR

About Starlink 4525

Description loading...

Live Position

Loading 3D Globe...

Upcoming Passes

Altitude History

Altitude vs Time

uPlot chart will show altitude changes over time

Two-Line Element Set

1 53401U 22097P 25346.77597757 .00000033 00000-0 20174-4 0 9991
2 53401 53.2183 154.2929 0001454 100.0437 260.0719 15.08832649185395
Epoch: Dec 12, 2025 • Age: 19 hours

Current Status

Altitude 541.2 km
Velocity 7.60 km/s
Sub-Earth Point 31.52°N, 112.88°W
Launch Date Aug 10, 2022
Age 3.3 years
Type internet

Technical Details

Classification Payload
Mass 297.00 kg
Dry Mass 275.00 kg
Total Mass 297.00 kg
Length 0.20 m
Diameter 2.80 m
Span 9.00 m
Shape Box + pan
Manufacturer SPXS
Bus Type Starlink
Phase Status In Orbit
Owner/State SPXS/US

Large Constellations

Loading constellations...